Flag for Western Sahara Weather past 2 weeks in Smara, Western Sahara

Now
68 °F

Scattered clouds.


Feels Like: 68 °F
Forecast: N/A
Wind: 18 mph from North

Location: Laayoune/Hassan Isl

Current Time: Feb 28, 2015 at 4:17:34 PM

Latest Report: Feb 28, 2015 at 3:00 PM


Visibility: 5 mi

Pressure: 30.21 "Hg

Humidity: 56%

Dew point: 52 °F

Location of SmaraLocation

Historic Weather in Smara — Graph

°F

Smara temperature yesterday

Maximum temperature yesterday: 68 °F (at 2:00 PM)
Minimum temperature yesterday: 57 °F (at 12:00 AM)
Average temperature yesterday: 62 °F

Past Weeks' High & Low Weather Summary

 TemperatureHumidityPressure
High75 °F (Feb 25, 3:00 PM)94% (Feb 15, 7:00 AM)30.33 "Hg (Feb 15, 7:00 AM)
Low52 °F (Feb 15, 7:00 AM)35% (Feb 21, 2:00 PM)30.01 "Hg (Feb 18, 3:00 PM)
Average62 °F68%30.18 "Hg
* Reported Feb 13 3:00 PM — Feb 28 3:00 PM, Smara, Weather by CustomWeather, © 2015

Note: Actual official high and low records may vary slightly from our data, if they occured in-between our weather recording intervals... More about our weather records

Advertising

Smara weather history for previous 24 hours

 ConditionsComfort  
Time TempWeatherWind HumidityBarometerVisibility
3:00 PM
Sat, Feb 28
68 °FScattered clouds.18 mph56%30.21 "Hg5 mi
2:00 PM68 °FPartly sunny.18 mph53%30.24 "HgN/A
1:00 PM68 °FPartly sunny.17 mph49%30.27 "Hg5 mi
12:00 PM66 °FPartly sunny.16 mph56%30.30 "Hg5 mi
11:00 AM64 °FPartly sunny.15 mph60%30.30 "Hg5 mi
10:00 AM63 °FOvercast.17 mph64%30.30 "Hg5 mi
9:00 AM61 °FOvercast.16 mph72%30.30 "Hg5 mi
8:00 AM59 °FOvercast.21 mph72%30.27 "Hg5 mi
7:00 AM61 °FPassing clouds.20 mph68%30.24 "HgN/A
4:00 AM59 °FPassing clouds.16 mph77%30.27 "Hg4 mi
3:00 AM61 °FPassing clouds.16 mph72%30.27 "Hg4 mi
2:00 AM61 °FPassing clouds.15 mph72%30.27 "Hg4 mi
1:00 AM61 °FPassing clouds.17 mph72%30.30 "Hg4 mi
12:00 AM61 °FPassing clouds.18 mph72%30.30 "Hg4 mi
11:00 PM
Fri, Feb 27
61 °FPassing clouds.24 mph68%30.30 "HgN/A
10:00 PM61 °FPassing clouds.23 mph68%30.30 "Hg5 mi
9:00 PM61 °FPassing clouds.18 mph68%30.30 "Hg5 mi
8:00 PM61 °FPassing clouds.21 mph68%30.27 "Hg5 mi
7:00 PM61 °FPartly sunny.21 mph68%30.27 "Hg4 mi
6:00 PM64 °FScattered clouds.21 mph60%30.27 "Hg4 mi
5:00 PM66 °FScattered clouds.21 mph60%30.24 "Hg5 mi
4:00 PM68 °FScattered clouds.22 mph56%30.24 "Hg5 mi
Weather by CustomWeather, © 2015

See weather overviewHow to use our weather pages